Change the Weather History Date:

Saturday, March 8, 2014

  Actual Average Record
Temperature  
Mean Temperature 55 °F -  
Max Temperature 73 °F 62 °F 74 °F (2015)
Min Temperature 37 °F 37 °F 36 °F (2015)
Degree Days  
Heating Degree Days 10    
Growing Degree Days 5 (Base 50)    
Moisture  
Dew Point 38 °F    
Average Humidity 59    
Maximum Humidity 99    
Minimum Humidity 22    
Precipitation  
Precipitation 0.00 in - - ()
Sea Level Pressure  
Sea Level Pressure 30.05 in    
Wind  
Wind Speed 3 mph (West)    
Max Wind Speed 16 mph    
Max Gust Speed 21 mph    
Visibility 10 miles    
Events      
Averages and records for this station are not official NWS values.
T = Trace of Precipitation, MM = Missing Value Source: NWS Daily Summary

Daily Weather History Graph

Daily Weather History Graph

Search for Another Location

Airport or City:

Trip Planner

Search our weather history database for the weather conditions in past years. The results will help you decide how hot, cold, wet, or windy it might be!

Date:

Astronomy

Mar. 08, 2014 Rise Set
Actual Time 6:53 AM EST 6:35 PM EST
Civil Twilight 6:28 AM EST 7:00 PM EST
Nautical Twilight 5:58 AM EST 7:29 PM EST
Astronomical Twilight 5:29 AM EST 7:58 PM EST
Moon 11:48 AM EST (3/8) 1:17 AM EST (3/8)
Length of Visible Light 12h 32m
Length of Day
11h 41m
First Quarter, 51% of the Moon is Illuminated
Mar 8
First Quarter
Mar 16
Full
Mar 23
Last Quarter
Mar 30
New
Apr 7
First Quarter

Hourly Weather History & Observations

Time (EST) Temp. Windchill Dew Point Humidity Pressure Visibility Wind Dir Wind Speed Gust Speed Precip Events Conditions
12:15 AM 42.4 °F - 41.2 °F 95% 30.04 in 10.0 mi Calm Calm - N/A   Clear
12:35 AM 42.1 °F - 40.8 °F 95% 30.04 in 10.0 mi Calm Calm - N/A   Clear
12:55 AM 40.3 °F - 39.2 °F 96% 30.02 in 10.0 mi Calm Calm - N/A   Clear
1:15 AM 41.2 °F - 40.3 °F 97% 30.03 in 10.0 mi Calm Calm - N/A   Clear
1:35 AM 39.9 °F - 39.0 °F 97% 30.03 in 10.0 mi Calm Calm - N/A   Clear
1:55 AM 39.6 °F - 38.8 °F 97% 30.03 in 10.0 mi Calm Calm - N/A   Clear
2:15 AM 39.9 °F - 39.2 °F 97% 30.02 in 10.0 mi Calm Calm - N/A   Clear
2:35 AM 39.7 °F - 38.8 °F 97% 30.02 in 10.0 mi Calm Calm - N/A   Clear
2:55 AM 40.1 °F - 39.4 °F 97% 30.02 in 10.0 mi Calm Calm - N/A   Clear
3:15 AM 39.7 °F - 39.0 °F 97% 30.01 in 10.0 mi Calm Calm - N/A   Clear
3:35 AM 39.4 °F - 38.7 °F 97% 30.02 in 10.0 mi Calm Calm - N/A   Clear
3:55 AM 40.1 °F - 39.2 °F 97% 30.02 in 10.0 mi Calm Calm - N/A   Clear
4:15 AM 39.4 °F 37.2 °F 38.7 °F 97% 30.02 in 10.0 mi WNW 3.5 mph - N/A   Clear
4:35 AM 38.8 °F - 38.1 °F 97% 30.02 in 7.0 mi Calm Calm - N/A   Clear
4:55 AM 38.8 °F - 38.1 °F 97% 30.03 in 7.0 mi Calm Calm - N/A   Clear
5:15 AM 37.9 °F - 37.2 °F 97% 30.04 in 10.0 mi Calm Calm - N/A   Clear
5:35 AM 38.7 °F - 37.9 °F 97% 30.05 in 10.0 mi Calm Calm - N/A   Clear
5:55 AM 40.3 °F - 39.7 °F 98% 30.06 in 10.0 mi Calm Calm - N/A   Clear
6:15 AM 38.3 °F - 37.6 °F 97% 30.06 in 7.0 mi Calm Calm - N/A   Clear
6:35 AM 38.8 °F - 38.3 °F 98% 30.06 in 7.0 mi Calm Calm - N/A   Clear
6:55 AM 39.0 °F - 38.3 °F 97% 30.06 in 7.0 mi Calm Calm - N/A   Clear
7:15 AM 40.5 °F - 40.1 °F 99% 30.07 in 7.0 mi Calm Calm - N/A   Clear
7:35 AM 39.6 °F - 39.0 °F 98% 30.08 in 5.0 mi Calm Calm - N/A   Clear
7:55 AM 41.2 °F - 40.6 °F 98% 30.09 in 7.0 mi Calm Calm - N/A   Clear
8:15 AM 46.0 °F - 45.3 °F 97% 30.10 in 10.0 mi Calm Calm - N/A   Clear
8:35 AM 48.6 °F - 46.0 °F 91% 30.10 in 10.0 mi Calm Calm - N/A   Clear
8:55 AM 53.1 °F - 46.4 °F 78% 30.10 in 10.0 mi Calm Calm - N/A   Clear
9:15 AM 55.2 °F - 46.6 °F 73% 30.11 in 10.0 mi Calm Calm - N/A   Clear
9:35 AM 57.9 °F - 45.0 °F 62% 30.11 in 10.0 mi Calm Calm - N/A   Clear
9:55 AM 61.0 °F - 44.8 °F 55% 30.11 in 10.0 mi Calm Calm - N/A   Clear
10:15 AM 63.1 °F - 44.4 °F 50% 30.11 in 10.0 mi WSW 4.6 mph - N/A   Clear
10:35 AM 64.2 °F - 39.6 °F 40% 30.11 in 10.0 mi NW 4.6 mph - N/A   Clear
10:55 AM 65.5 °F - 37.9 °F 36% 30.11 in 10.0 mi West 6.9 mph - N/A   Clear
11:15 AM 66.9 °F - 36.9 °F 33% 30.11 in 10.0 mi West 5.8 mph - N/A   Clear
11:35 AM 67.8 °F - 36.0 °F 31% 30.10 in 10.0 mi WNW 8.1 mph - N/A   Clear
11:55 AM 67.6 °F - 36.0 °F 31% 30.10 in 10.0 mi WSW 8.1 mph - N/A   Clear
12:15 PM 69.1 °F - 35.1 °F 29% 30.09 in 10.0 mi NW 6.9 mph - N/A   Clear
12:35 PM 70.0 °F - 32.9 °F 25% 30.08 in 10.0 mi WNW 6.9 mph - N/A   Clear
12:55 PM 70.7 °F - 32.0 °F 24% 30.07 in 10.0 mi NW 8.1 mph - N/A   Clear
1:15 PM 70.7 °F - 34.5 °F 26% 30.06 in 10.0 mi West 3.5 mph 9.2 mph N/A   Clear
1:35 PM 72.3 °F - 33.8 °F 24% 30.04 in 10.0 mi WSW 12.7 mph 20.7 mph N/A   Clear
1:55 PM 72.1 °F - 34.2 °F 25% 30.03 in 10.0 mi West 5.8 mph - N/A   Clear
2:20 PM 72.3 °F - 34.5 °F 25% 30.02 in 10.0 mi WSW 10.4 mph 16.1 mph N/A   Clear
2:35 PM 73.8 °F - 34.9 °F 24% 30.03 in 10.0 mi WSW 12.7 mph 18.4 mph N/A   Clear
2:55 PM 73.0 °F - 32.7 °F 23% 30.02 in 10.0 mi NW 10.4 mph 18.4 mph N/A   Clear
3:15 PM 73.8 °F - 32.4 °F 22% 30.02 in 10.0 mi West 10.4 mph 20.7 mph N/A   Clear
3:35 PM 73.4 °F - 34.0 °F 24% 30.02 in 10.0 mi WSW 12.7 mph 17.3 mph N/A   Clear
3:55 PM 73.6 °F - 34.7 °F 24% 30.01 in 10.0 mi WSW 13.8 mph 19.6 mph N/A   Clear
4:15 PM 73.0 °F - 35.2 °F 25% 30.01 in 10.0 mi SW 11.5 mph - N/A   Clear
4:35 PM 72.9 °F - 35.2 °F 25% 30.01 in 10.0 mi WSW 12.7 mph 19.6 mph N/A   Clear
4:55 PM 72.0 °F - 34.7 °F 26% 30.01 in 10.0 mi West 12.7 mph 17.3 mph N/A   Clear
5:15 PM 70.9 °F - 34.3 °F 26% 30.01 in 10.0 mi WSW 16.1 mph 19.6 mph N/A   Clear
5:35 PM 70.2 °F - 34.9 °F 27% 30.02 in 10.0 mi WSW 9.2 mph 17.3 mph N/A   Clear
5:55 PM 68.9 °F - 34.2 °F 28% 30.02 in 10.0 mi WSW 5.8 mph - N/A   Clear
6:15 PM 67.5 °F - 34.9 °F 30% 30.02 in 10.0 mi WSW 10.4 mph - N/A   Clear
6:35 PM 66.2 °F - 35.6 °F 32% 30.03 in 10.0 mi WSW 10.4 mph - N/A   Clear
6:55 PM 64.8 °F - 36.0 °F 34% 30.04 in 10.0 mi WSW 10.4 mph - N/A   Clear
7:15 PM 64.0 °F - 36.9 °F 37% 30.04 in 10.0 mi WSW 9.2 mph - N/A   Clear
7:35 PM 63.5 °F - 37.6 °F 38% 30.05 in 10.0 mi WSW 8.1 mph - N/A   Clear
7:55 PM 62.6 °F - 38.3 °F 41% 30.06 in 10.0 mi WSW 8.1 mph - N/A   Clear
8:15 PM 62.4 °F - 38.3 °F 41% 30.06 in 10.0 mi West 5.8 mph - N/A   Clear
8:35 PM 61.7 °F - 38.5 °F 42% 30.06 in 10.0 mi West 6.9 mph - N/A   Clear
8:55 PM 61.3 °F - 38.7 °F 43% 30.07 in 10.0 mi West 6.9 mph - N/A   Clear
9:15 PM 61.2 °F - 39.2 °F 44% 30.07 in 10.0 mi West 6.9 mph - N/A   Clear
9:35 PM 61.0 °F - 39.2 °F 45% 30.08 in 10.0 mi West 8.1 mph - N/A   Clear
9:55 PM 61.0 °F - 39.2 °F 45% 30.08 in 10.0 mi West 9.2 mph - N/A   Clear
10:15 PM 60.8 °F - 39.9 °F 46% 30.08 in 10.0 mi West 8.1 mph - N/A   Clear
10:35 PM 60.3 °F - 40.3 °F 48% 30.08 in 10.0 mi West 8.1 mph - N/A   Clear
10:55 PM 60.3 °F - 40.6 °F 48% 30.09 in 10.0 mi West 8.1 mph - N/A   Clear
11:15 PM 59.9 °F - 41.0 °F 50% 30.08 in 10.0 mi West 8.1 mph - N/A   Clear
11:35 PM 59.4 °F - 41.2 °F 51% 30.08 in 10.0 mi West 6.9 mph - N/A   Clear
11:55 PM 59.2 °F - 41.0 °F 51% 30.08 in 10.0 mi West 6.9 mph - N/A   Clear